TimePDT,TemperatureF,Dew PointF,Humidity,Sea Level PressureIn,VisibilityMPH,Wind Direction,Wind SpeedMPH,Gust SpeedMPH,PrecipitationIn,Events,Conditions,WindDirDegrees,DateUTC
12:53 AM,41.0,34.0,76,30.00,10.0,South,4.6,-,N/A,,Mostly Cloudy,170,2013-03-17 07:53:00
1:10 AM,41.0,33.8,76,30.01,10.0,South,5.8,-,N/A,,Scattered Clouds,180,2013-03-17 08:10:00
1:22 AM,39.2,33.8,81,30.01,10.0,South,8.1,-,N/A,,Mostly Cloudy,170,2013-03-17 08:22:00
1:29 AM,41.0,33.8,76,30.02,10.0,South,8.1,-,N/A,,Scattered Clouds,170,2013-03-17 08:29:00
1:53 AM,39.9,33.1,77,30.02,10.0,SSE,5.8,-,N/A,,Scattered Clouds,160,2013-03-17 08:53:00
2:53 AM,39.0,33.1,79,30.04,10.0,SSE,6.9,-,N/A,,Partly Cloudy,150,2013-03-17 09:53:00
3:32 AM,39.2,33.8,81,30.05,10.0,SSE,6.9,-,N/A,,Mostly Cloudy,160,2013-03-17 10:32:00
3:45 AM,39.2,33.8,81,30.05,10.0,SE,5.8,-,N/A,,Scattered Clouds,140,2013-03-17 10:45:00
3:53 AM,39.9,33.1,77,30.06,10.0,SE,4.6,-,N/A,,Mostly Cloudy,140,2013-03-17 10:53:00
4:53 AM,41.0,34.0,76,30.08,10.0,South,5.8,-,N/A,,Overcast,190,2013-03-17 11:53:00
5:53 AM,41.0,34.0,76,30.10,10.0,South,3.5,-,N/A,,Overcast,180,2013-03-17 12:53:00
6:53 AM,41.0,33.1,73,30.12,10.0,South,5.8,-,N/A,,Mostly Cloudy,180,2013-03-17 13:53:00
7:15 AM,39.2,32.0,75,30.12,10.0,South,3.5,-,N/A,,Overcast,170,2013-03-17 14:15:00
7:53 AM,41.0,32.0,70,30.14,10.0,Calm,Calm,-,N/A,,Overcast,0,2013-03-17 14:53:00
8:53 AM,42.1,33.1,70,30.17,10.0,South,6.9,-,N/A,,Mostly Cloudy,180,2013-03-17 15:53:00
9:53 AM,44.1,32.0,63,30.19,10.0,South,10.4,18.4,N/A,,Scattered Clouds,170,2013-03-17 16:53:00
10:53 AM,45.0,32.0,60,30.20,10.0,South,12.7,18.4,N/A,,Scattered Clouds,190,2013-03-17 17:53:00
11:53 AM,48.0,33.1,56,30.20,10.0,South,10.4,-,N/A,,Partly Cloudy,180,2013-03-17 18:53:00
12:53 PM,48.0,30.9,52,30.19,10.0,South,8.1,-,N/A,,Scattered Clouds,190,2013-03-17 19:53:00
1:53 PM,48.9,33.1,54,30.19,10.0,South,12.7,19.6,N/A,,Scattered Clouds,190,2013-03-17 20:53:00
2:53 PM,50.0,32.0,50,30.17,10.0,SSW,11.5,16.1,N/A,,Mostly Cloudy,200,2013-03-17 21:53:00
3:53 PM,48.0,30.9,52,30.18,10.0,SSW,11.5,19.6,N/A,,Mostly Cloudy,200,2013-03-17 22:53:00
4:53 PM,48.0,30.9,52,30.18,10.0,SSW,9.2,19.6,N/A,,Overcast,210,2013-03-17 23:53:00
5:53 PM,46.0,30.9,56,30.18,10.0,SSW,8.1,19.6,N/A,,Mostly Cloudy,210,2013-03-18 00:53:00
6:53 PM,45.0,32.0,60,30.18,10.0,SSW,6.9,17.3,N/A,,Overcast,210,2013-03-18 01:53:00
7:53 PM,44.1,33.1,65,30.17,10.0,South,8.1,-,N/A,,Overcast,190,2013-03-18 02:53:00
8:53 PM,43.0,33.1,68,30.19,10.0,SSW,5.8,-,0.00,,Overcast,200,2013-03-18 03:53:00
9:33 PM,42.8,33.8,70,30.19,10.0,SSW,8.1,-,N/A,,Overcast,200,2013-03-18 04:33:00
9:53 PM,42.1,33.1,70,30.19,10.0,SSW,8.1,-,N/A,,Overcast,200,2013-03-18 04:53:00
10:53 PM,42.1,33.1,70,30.20,10.0,South,6.9,-,N/A,,Overcast,190,2013-03-18 05:53:00
11:53 PM,42.1,33.1,70,30.19,10.0,South,6.9,-,N/A,,Overcast,180,2013-03-18 06:53:00